owner,sensor,date,latitude,longitude,vertical_datum,wind_speed,wind_to_direction,wind_speed_of_gust,qcFlag 
NDBC,ioos:station:wmo:42035:1,2017-09-01T00:00:00Z,29.2320,-94.4130,5.0,7.0,230.0,8.0,'1111122,1111122,1111122' 
NDBC,ioos:station:wmo:42035:1,2017-09-01T01:00:00Z,29.2320,-94.4130,5.0,7.0,230.0,9.0,'1111122,1111122,1111122' 
NDBC,ioos:station:wmo:42035:1,2017-09-01T02:00:00Z,29.2320,-94.4130,5.0,6.0,230.0,7.0,'1111122,1111122,1111122' 
NDBC,ioos:station:wmo:42035:1,2017-09-01T03:00:00Z,29.2320,-94.4130,5.0,5.0,240.0,6.0,'1111122,1111122,1111122' 
NDBC,ioos:station:wmo:42035:1,2017-09-01T04:00:00Z,29.2320,-94.4130,5.0,5.0,240.0,5.0,'1111122,1111122,1111122' 
NDBC,ioos:station:wmo:42035:1,2017-09-01T05:00:00Z,29.2320,-94.4130,5.0,4.0,240.0,4.0,'1111122,1111122,1111122' 
NDBC,ioos:station:wmo:42035:1,2017-09-01T06:00:00Z,29.2320,-94.4130,5.0,4.0,250.0,5.0,'1111122,1111122,1111122' 
NDBC,ioos:station:wmo:42035:1,2017-09-01T07:00:00Z,29.2320,-94.4130,5.0,4.0,260.0,5.0,'1111122,1111122,1111122' 
NDBC,ioos:station:wmo:42035:1,2017-09-01T08:00:00Z,29.2320,-94.4130,5.0,4.0,260.0,5.0,'1111122,1111122,1111122' 
NDBC,ioos:station:wmo:42035:1,2017-09-01T09:00:00Z,29.2320,-94.4130,5.0,5.0,270.0,5.0,'1111122,1111122,1111122' 
NDBC,ioos:station:wmo:42035:1,2017-09-01T10:00:00Z,29.2320,-94.4130,5.0,5.0,260.0,6.0,'1111122,1111122,1111122' 
NDBC,ioos:station:wmo:42035:1,2017-09-01T11:00:00Z,29.2320,-94.4130,5.0,5.0,270.0,6.0,'1111122,1111122,1111122' 
NDBC,ioos:station:wmo:42035:1,2017-09-01T12:00:00Z,29.2320,-94.4130,5.0,5.0,320.0,6.0,'1111122,1111122,1111122' 
NDBC,ioos:station:wmo:42035:1,2017-09-01T13:00:00Z,29.2320,-94.4130,5.0,4.0,320.0,5.0,'1111122,1111122,1111122' 
NDBC,ioos:station:wmo:42035:1,2017-09-01T14:00:00Z,29.2320,-94.4130,5.0,4.0,310.0,5.0,'1111122,1111122,1111122' 
NDBC,ioos:station:wmo:42035:1,2017-09-01T15:00:00Z,29.2320,-94.4130,5.0,3.0,310.0,4.0,'1111122,1111122,1111122' 
NDBC,ioos:station:wmo:42035:1,2017-09-01T16:00:00Z,29.2320,-94.4130,5.0,2.0,320.0,3.0,'1111122,1111122,1111122' 
NDBC,ioos:station:wmo:42035:1,2017-09-01T17:00:00Z,29.2320,-94.4130,5.0,2.0,330.0,2.0,'1111122,1111122,1111122' 
NDBC,ioos:station:wmo:42035:1,2017-09-01T18:00:00Z,29.2320,-94.4130,5.0,2.0,20.0,3.0,'1111122,1111122,1111122' 
NDBC,ioos:station:wmo:42035:1,2017-09-01T19:00:00Z,29.2320,-94.4130,5.0,3.0,80.0,3.0,'1111122,1111122,1111122' 
NDBC,ioos:station:wmo:42035:1,2017-09-01T20:00:00Z,29.2320,-94.4130,5.0,3.0,90.0,4.0,'1111122,1111122,1111122' 
NDBC,ioos:station:wmo:42035:1,2017-09-01T21:00:00Z,29.2320,-94.4130,5.0,2.0,110.0,3.0,'1111122,1111122,1111122' 
NDBC,ioos:station:wmo:42035:1,2017-09-01T22:00:00Z,29.2320,-94.4130,5.0,2.0,120.0,2.0,'1111122,1111122,1111122' 
NDBC,ioos:station:wmo:42035:1,2017-09-02T00:00:00Z,29.2320,-94.4130,5.0,3.0,140.0,3.0,'1111122,1111122,1111122' 
NDBC,ioos:station:wmo:42035:1,2017-09-02T01:00:00Z,29.2320,-94.4130,5.0,2.0,150.0,3.0,'1111122,1111122,1111122' 
NDBC,ioos:station:wmo:42035:1,2017-09-02T02:00:00Z,29.2320,-94.4130,5.0,2.0,160.0,3.0,'1111122,1111122,1111122' 
NDBC,ioos:station:wmo:42035:1,2017-09-02T03:00:00Z,29.2320,-94.4130,5.0,2.0,160.0,3.0,'1111122,1111122,1111122' 
NDBC,ioos:station:wmo:42035:1,2017-09-02T04:00:00Z,29.2320,-94.4130,5.0,2.0,160.0,3.0,'1111122,1111122,1111122' 
NDBC,ioos:station:wmo:42035:1,2017-09-02T05:00:00Z,29.2320,-94.4130,5.0,1.0,190.0,2.0,'1111122,1111122,1111122' 
NDBC,ioos:station:wmo:42035:1,2017-09-02T06:00:00Z,29.2320,-94.4130,5.0,0.0,-9999.0,1.0,'1114422,1111122,1111122' 
NDBC,ioos:station:wmo:42035:1,2017-09-02T08:00:00Z,29.2320,-94.4130,5.0,1.0,290.0,1.0,'1111122,1111122,1111122' 
NDBC,ioos:station:wmo:42035:1,2017-09-02T09:00:00Z,29.2320,-94.4130,5.0,0.0,-9999.0,1.0,'1114422,1111122,1111122' 
NDBC,ioos:station:wmo:42035:1,2017-09-02T10:00:00Z,29.2320,-94.4130,5.0,1.0,300.0,1.0,'1111122,1111122,1111122' 
NDBC,ioos:station:wmo:42035:1,2017-09-02T11:00:00Z,29.2320,-94.4130,5.0,1.0,310.0,2.0,'1111122,1111122,1111122' 
NDBC,ioos:station:wmo:42035:1,2017-09-02T12:00:00Z,29.2320,-94.4130,5.0,1.0,330.0,1.0,'1111122,1111122,1111122' 
NDBC,ioos:station:wmo:42035:1,2017-09-02T13:00:00Z,29.2320,-94.4130,5.0,2.0,340.0,3.0,'1111122,1111122,1111122' 
NDBC,ioos:station:wmo:42035:1,2017-09-02T14:00:00Z,29.2320,-94.4130,5.0,2.0,340.0,2.0,'1111122,1111122,1111122' 
NDBC,ioos:station:wmo:42035:1,2017-09-02T15:00:00Z,29.2320,-94.4130,5.0,2.0,320.0,2.0,'1111122,1111122,1111122' 
NDBC,ioos:station:wmo:42035:1,2017-09-02T16:00:00Z,29.2320,-94.4130,5.0,1.0,330.0,1.0,'1111122,1111122,1111122' 
NDBC,ioos:station:wmo:42035:1,2017-09-02T17:00:00Z,29.2320,-94.4130,5.0,1.0,330.0,1.0,'1111122,1111122,1111122' 
NDBC,ioos:station:wmo:42035:1,2017-09-02T18:00:00Z,29.2320,-94.4130,5.0,2.0,20.0,2.0,'1111122,1111122,1111122' 
NDBC,ioos:station:wmo:42035:1,2017-09-02T19:00:00Z,29.2320,-94.4130,5.0,2.0,50.0,2.0,'1111122,1111122,1111122' 
NDBC,ioos:station:wmo:42035:1,2017-09-02T20:00:00Z,29.2320,-94.4130,5.0,2.0,60.0,2.0,'1111122,1111122,1111122' 
NDBC,ioos:station:wmo:42035:1,2017-09-02T21:00:00Z,29.2320,-94.4130,5.0,2.0,120.0,3.0,'1111122,1111122,1111122' 
NDBC,ioos:station:wmo:42035:1,2017-09-02T22:00:00Z,29.2320,-94.4130,5.0,1.0,160.0,3.0,'1111122,1111122,1111122' 
NDBC,ioos:station:wmo:42035:1,2017-09-02T23:00:00Z,29.2320,-94.4130,5.0,1.0,170.0,1.0,'1111122,1111122,1111122' 
NDBC,ioos:station:wmo:42035:1,2017-09-03T01:00:00Z,29.2320,-94.4130,5.0,0.0,-9999.0,1.0,'1114422,1111122,1111122' 
NDBC,ioos:station:wmo:42035:1,2017-09-03T03:00:00Z,29.2320,-94.4130,5.0,1.0,110.0,2.0,'1111122,1111122,1111122' 
NDBC,ioos:station:wmo:42035:1,2017-09-03T04:00:00Z,29.2320,-94.4130,5.0,1.0,120.0,2.0,'1111122,1111122,1111122' 
NDBC,ioos:station:wmo:42035:1,2017-09-03T05:00:00Z,29.2320,-94.4130,5.0,1.0,110.0,2.0,'1111122,1111122,1111122' 
NDBC,ioos:station:wmo:42035:1,2017-09-03T06:00:00Z,29.2320,-94.4130,5.0,2.0,130.0,3.0,'1111122,1111122,1111122' 
NDBC,ioos:station:wmo:42035:1,2017-09-03T07:00:00Z,29.2320,-94.4130,5.0,3.0,150.0,4.0,'1111122,1111122,1111122' 
NDBC,ioos:station:wmo:42035:1,2017-09-03T08:00:00Z,29.2320,-94.4130,5.0,4.0,140.0,4.0,'1111122,1111122,1111122' 
NDBC,ioos:station:wmo:42035:1,2017-09-03T09:00:00Z,29.2320,-94.4130,5.0,3.0,150.0,4.0,'1111122,1111122,1111122' 
NDBC,ioos:station:wmo:42035:1,2017-09-03T10:00:00Z,29.2320,-94.4130,5.0,2.0,150.0,3.0,'1111122,1111122,1111122' 
NDBC,ioos:station:wmo:42035:1,2017-09-03T11:00:00Z,29.2320,-94.4130,5.0,2.0,140.0,2.0,'1111122,1111122,1111122' 
NDBC,ioos:station:wmo:42035:1,2017-09-03T12:00:00Z,29.2320,-94.4130,5.0,1.0,150.0,1.0,'1111122,1111122,1111122' 
NDBC,ioos:station:wmo:42035:1,2017-09-03T13:00:00Z,29.2320,-94.4130,5.0,0.0,-9999.0,1.0,'1114422,1111122,1111122' 
NDBC,ioos:station:wmo:42035:1,2017-09-03T14:00:00Z,29.2320,-94.4130,5.0,2.0,350.0,2.0,'1111122,1111122,1111122' 
NDBC,ioos:station:wmo:42035:1,2017-09-03T15:00:00Z,29.2320,-94.4130,5.0,2.0,10.0,2.0,'1111122,1111122,1111122' 
NDBC,ioos:station:wmo:42035:1,2017-09-03T16:00:00Z,29.2320,-94.4130,5.0,2.0,20.0,2.0,'1111122,1111122,1111122' 
NDBC,ioos:station:wmo:42035:1,2017-09-03T17:00:00Z,29.2320,-94.4130,5.0,2.0,50.0,2.0,'1111122,1111122,1111122' 
NDBC,ioos:station:wmo:42035:1,2017-09-03T18:00:00Z,29.2320,-94.4130,5.0,1.0,110.0,2.0,'1111122,1111122,1111122' 
NDBC,ioos:station:wmo:42035:1,2017-09-03T19:00:00Z,29.2320,-94.4130,5.0,2.0,80.0,2.0,'1111122,1111122,1111122' 
NDBC,ioos:station:wmo:42035:1,2017-09-03T20:00:00Z,29.2320,-94.4130,5.0,2.0,80.0,3.0,'1111122,1111122,1111122' 
NDBC,ioos:station:wmo:42035:1,2017-09-03T21:00:00Z,29.2320,-94.4130,5.0,2.0,70.0,3.0,'1111122,1111122,1111122' 
NDBC,ioos:station:wmo:42035:1,2017-09-03T22:00:00Z,29.2320,-94.4130,5.0,3.0,80.0,4.0,'1111122,1111122,1111122' 
NDBC,ioos:station:wmo:42035:1,2017-09-03T23:00:00Z,29.2320,-94.4130,5.0,3.0,80.0,4.0,'1111122,1111122,1111122' 
NDBC,ioos:station:wmo:42035:1,2017-09-04T00:00:00Z,29.2320,-94.4130,5.0,4.0,100.0,5.0,'1111122,1111122,1111122' 
NDBC,ioos:station:wmo:42035:1,2017-09-04T01:00:00Z,29.2320,-94.4130,5.0,4.0,90.0,5.0,'1111122,1111122,1111122' 
NDBC,ioos:station:wmo:42035:1,2017-09-04T02:00:00Z,29.2320,-94.4130,5.0,4.0,100.0,5.0,'1111122,1111122,1111122' 
NDBC,ioos:station:wmo:42035:1,2017-09-04T03:00:00Z,29.2320,-94.4130,5.0,4.0,90.0,5.0,'1111122,1111122,1111122' 
NDBC,ioos:station:wmo:42035:1,2017-09-04T04:00:00Z,29.2320,-94.4130,5.0,4.0,110.0,5.0,'1111122,1111122,1111122' 
NDBC,ioos:station:wmo:42035:1,2017-09-04T05:00:00Z,29.2320,-94.4130,5.0,4.0,120.0,5.0,'1111122,1111122,1111122' 
NDBC,ioos:station:wmo:42035:1,2017-09-04T06:00:00Z,29.2320,-94.4130,5.0,4.0,120.0,5.0,'1111122,1111122,1111122' 
NDBC,ioos:station:wmo:42035:1,2017-09-04T07:00:00Z,29.2320,-94.4130,5.0,4.0,130.0,5.0,'1111122,1111122,1111122' 
NDBC,ioos:station:wmo:42035:1,2017-09-04T08:00:00Z,29.2320,-94.4130,5.0,4.0,150.0,5.0,'1111122,1111122,1111122' 
NDBC,ioos:station:wmo:42035:1,2017-09-04T09:00:00Z,29.2320,-94.4130,5.0,3.0,160.0,4.0,'1111122,1111122,1111122' 
NDBC,ioos:station:wmo:42035:1,2017-09-04T10:00:00Z,29.2320,-94.4130,5.0,3.0,170.0,4.0,'1111122,1111122,1111122' 
NDBC,ioos:station:wmo:42035:1,2017-09-04T11:00:00Z,29.2320,-94.4130,5.0,2.0,130.0,3.0,'1111122,1111122,1111122' 
NDBC,ioos:station:wmo:42035:1,2017-09-04T12:00:00Z,29.2320,-94.4130,5.0,2.0,150.0,3.0,'1111122,1111122,1111122' 
NDBC,ioos:station:wmo:42035:1,2017-09-04T13:00:00Z,29.2320,-94.4130,5.0,3.0,160.0,4.0,'1111122,1111122,1111122' 
NDBC,ioos:station:wmo:42035:1,2017-09-04T14:00:00Z,29.2320,-94.4130,5.0,3.0,150.0,4.0,'1111122,1111122,1111122' 
NDBC,ioos:station:wmo:42035:1,2017-09-04T15:00:00Z,29.2320,-94.4130,5.0,3.0,140.0,4.0,'1111122,1111122,1111122' 
NDBC,ioos:station:wmo:42035:1,2017-09-04T16:00:00Z,29.2320,-94.4130,5.0,3.0,130.0,4.0,'1111122,1111122,1111122' 
NDBC,ioos:station:wmo:42035:1,2017-09-04T17:00:00Z,29.2320,-94.4130,5.0,3.0,120.0,4.0,'1111122,1111122,1111122' 
NDBC,ioos:station:wmo:42035:1,2017-09-04T18:00:00Z,29.2320,-94.4130,5.0,4.0,130.0,4.0,'1111122,1111122,1111122' 
NDBC,ioos:station:wmo:42035:1,2017-09-04T19:00:00Z,29.2320,-94.4130,5.0,4.0,140.0,4.0,'1111122,1111122,1111122' 
NDBC,ioos:station:wmo:42035:1,2017-09-04T20:00:00Z,29.2320,-94.4130,5.0,3.0,140.0,4.0,'1111122,1111122,1111122' 
NDBC,ioos:station:wmo:42035:1,2017-09-04T21:00:00Z,29.2320,-94.4130,5.0,3.0,140.0,4.0,'1111122,1111122,1111122' 
NDBC,ioos:station:wmo:42035:1,2017-09-04T22:00:00Z,29.2320,-94.4130,5.0,3.0,150.0,4.0,'1111122,1111122,1111122' 
NDBC,ioos:station:wmo:42035:1,2017-09-05T00:00:00Z,29.2320,-94.4130,5.0,3.0,130.0,5.0,'1111122,1111122,1111122' 
NDBC,ioos:station:wmo:42035:1,2017-09-05T01:00:00Z,29.2320,-94.4130,5.0,4.0,150.0,5.0,'1111122,1111122,1111122' 
NDBC,ioos:station:wmo:42035:1,2017-09-05T02:00:00Z,29.2320,-94.4130,5.0,4.0,140.0,4.0,'1111122,1111122,1111122' 
NDBC,ioos:station:wmo:42035:1,2017-09-05T03:00:00Z,29.2320,-94.4130,5.0,3.0,140.0,4.0,'1111122,1111122,1111122' 
NDBC,ioos:station:wmo:42035:1,2017-09-05T04:00:00Z,29.2320,-94.4130,5.0,3.0,140.0,4.0,'1111122,1111122,1111122' 
NDBC,ioos:station:wmo:42035:1,2017-09-05T05:00:00Z,29.2320,-94.4130,5.0,3.0,170.0,4.0,'1111122,1111122,1111122' 
NDBC,ioos:station:wmo:42035:1,2017-09-05T06:00:00Z,29.2320,-94.4130,5.0,4.0,170.0,5.0,'1111122,1111122,1111122' 
NDBC,ioos:station:wmo:42035:1,2017-09-05T07:00:00Z,29.2320,-94.4130,5.0,5.0,180.0,6.0,'1111122,1111122,1111122' 
NDBC,ioos:station:wmo:42035:1,2017-09-05T08:00:00Z,29.2320,-94.4130,5.0,4.0,180.0,5.0,'1111122,1111122,1111122' 
NDBC,ioos:station:wmo:42035:1,2017-09-05T09:00:00Z,29.2320,-94.4130,5.0,3.0,170.0,4.0,'1111122,1111122,1111122' 
NDBC,ioos:station:wmo:42035:1,2017-09-05T10:00:00Z,29.2320,-94.4130,5.0,2.0,180.0,3.0,'1111122,1111122,1111122' 
NDBC,ioos:station:wmo:42035:1,2017-09-05T11:00:00Z,29.2320,-94.4130,5.0,1.0,200.0,1.0,'1111122,1111122,1111122' 
NDBC,ioos:station:wmo:42035:1,2017-09-05T12:00:00Z,29.2320,-94.4130,5.0,1.0,300.0,1.0,'1111122,1111122,1111122' 
NDBC,ioos:station:wmo:42035:1,2017-09-05T13:00:00Z,29.2320,-94.4130,5.0,1.0,340.0,1.0,'1111122,1111122,1111122' 
NDBC,ioos:station:wmo:42035:1,2017-09-05T14:00:00Z,29.2320,-94.4130,5.0,2.0,10.0,2.0,'1111122,1111122,1111122' 
NDBC,ioos:station:wmo:42035:1,2017-09-05T15:00:00Z,29.2320,-94.4130,5.0,1.0,30.0,1.0,'1111122,1111122,1111122' 
NDBC,ioos:station:wmo:42035:1,2017-09-05T16:00:00Z,29.2320,-94.4130,5.0,3.0,30.0,4.0,'1111122,1111122,1111122' 
NDBC,ioos:station:wmo:42035:1,2017-09-05T17:00:00Z,29.2320,-94.4130,5.0,3.0,40.0,3.0,'1111122,1111122,1111122' 
NDBC,ioos:station:wmo:42035:1,2017-09-05T18:00:00Z,29.2320,-94.4130,5.0,3.0,50.0,4.0,'1111122,1111122,1111122' 
NDBC,ioos:station:wmo:42035:1,2017-09-05T19:00:00Z,29.2320,-94.4130,5.0,3.0,50.0,4.0,'1111122,1111122,1111122' 
NDBC,ioos:station:wmo:42035:1,2017-09-05T20:00:00Z,29.2320,-94.4130,5.0,3.0,80.0,4.0,'1111122,1111122,1111122' 
NDBC,ioos:station:wmo:42035:1,2017-09-05T21:00:00Z,29.2320,-94.4130,5.0,3.0,80.0,4.0,'1111122,1111122,1111122' 
NDBC,ioos:station:wmo:42035:1,2017-09-05T22:00:00Z,29.2320,-94.4130,5.0,2.0,130.0,3.0,'1111122,1111122,1111122' 
NDBC,ioos:station:wmo:42035:1,2017-09-05T23:00:00Z,29.2320,-94.4130,5.0,2.0,90.0,3.0,'1111122,1111122,1111122' 
NDBC,ioos:station:wmo:42035:1,2017-09-06T00:00:00Z,29.2320,-94.4130,5.0,3.0,110.0,4.0,'1111122,1111122,1111122' 
NDBC,ioos:station:wmo:42035:1,2017-09-06T01:00:00Z,29.2320,-94.4130,5.0,4.0,160.0,5.0,'1111122,1111122,1111122' 
NDBC,ioos:station:wmo:42035:1,2017-09-07T15:00:00Z,29.2320,-94.4130,5.0,9.0,50.0,10.0,'1111122,1111122,1111122' 
NDBC,ioos:station:wmo:42035:1,2017-09-07T16:00:00Z,29.2320,-94.4130,5.0,8.0,60.0,10.0,'1111122,1111122,1111122' 
NDBC,ioos:station:wmo:42035:1,2017-09-07T17:00:00Z,29.2320,-94.4130,5.0,8.0,50.0,10.0,'1111122,1111122,1111122' 
NDBC,ioos:station:wmo:42035:1,2017-09-07T18:00:00Z,29.2320,-94.4130,5.0,7.0,60.0,8.0,'1111122,1111122,1111122' 
NDBC,ioos:station:wmo:42035:1,2017-09-07T19:00:00Z,29.2320,-94.4130,5.0,6.0,50.0,8.0,'1111122,1111122,1111122' 
NDBC,ioos:station:wmo:42035:1,2017-09-07T20:00:00Z,29.2320,-94.4130,5.0,6.0,40.0,8.0,'1111122,1111122,1111122' 
NDBC,ioos:station:wmo:42035:1,2017-09-07T21:00:00Z,29.2320,-94.4130,5.0,6.0,40.0,8.0,'1111122,1111122,1111122' 
NDBC,ioos:station:wmo:42035:1,2017-09-07T22:00:00Z,29.2320,-94.4130,5.0,6.0,40.0,7.0,'1111122,1111122,1111122' 
NDBC,ioos:station:wmo:42035:1,2017-09-07T23:00:00Z,29.2320,-94.4130,5.0,6.0,40.0,8.0,'1111122,1111122,1111122' 
NDBC,ioos:station:wmo:42035:1,2017-09-08T00:00:00Z,29.2320,-94.4130,5.0,6.0,60.0,8.0,'1111122,1111122,1111122' 
NDBC,ioos:station:wmo:42035:1,2017-09-08T01:00:00Z,29.2320,-94.4130,5.0,6.0,50.0,8.0,'1111122,1111122,1111122' 
NDBC,ioos:station:wmo:42035:1,2017-09-08T02:00:00Z,29.2320,-94.4130,5.0,6.0,60.0,8.0,'1111122,1111122,1111122' 
NDBC,ioos:station:wmo:42035:1,2017-09-08T03:00:00Z,29.2320,-94.4130,5.0,6.0,60.0,7.0,'1111122,1111122,1111122' 
NDBC,ioos:station:wmo:42035:1,2017-09-08T04:00:00Z,29.2320,-94.4130,5.0,6.0,60.0,7.0,'1111122,1111122,1111122' 
NDBC,ioos:station:wmo:42035:1,2017-09-08T05:00:00Z,29.2320,-94.4130,5.0,7.0,60.0,8.0,'1111122,1111122,1111122' 
NDBC,ioos:station:wmo:42035:1,2017-09-08T06:00:00Z,29.2320,-94.4130,5.0,8.0,50.0,9.0,'1111122,1111122,1111122' 
NDBC,ioos:station:wmo:42035:1,2017-09-08T07:00:00Z,29.2320,-94.4130,5.0,7.0,50.0,9.0,'1111122,1111122,1111122' 
NDBC,ioos:station:wmo:42035:1,2017-09-08T08:00:00Z,29.2320,-94.4130,5.0,9.0,60.0,11.0,'1111122,1111122,1111122' 
NDBC,ioos:station:wmo:42035:1,2017-09-08T09:00:00Z,29.2320,-94.4130,5.0,8.0,60.0,10.0,'1111122,1111122,1111122' 
NDBC,ioos:station:wmo:42035:1,2017-09-08T10:00:00Z,29.2320,-94.4130,5.0,8.0,60.0,10.0,'1111122,1111122,1111122' 
NDBC,ioos:station:wmo:42035:1,2017-09-08T11:00:00Z,29.2320,-94.4130,5.0,8.0,60.0,10.0,'1111122,1111122,1111122' 
NDBC,ioos:station:wmo:42035:1,2017-09-08T12:00:00Z,29.2320,-94.4130,5.0,7.0,60.0,9.0,'1111122,1111122,1111122' 
NDBC,ioos:station:wmo:42035:1,2017-09-08T13:00:00Z,29.2320,-94.4130,5.0,7.0,70.0,9.0,'1111122,1111122,1111122' 
NDBC,ioos:station:wmo:42035:1,2017-09-08T14:00:00Z,29.2320,-94.4130,5.0,7.0,60.0,9.0,'1111122,1111122,1111122' 
NDBC,ioos:station:wmo:42035:1,2017-09-08T15:00:00Z,29.2320,-94.4130,5.0,7.0,70.0,9.0,'1111122,1111122,1111122' 
NDBC,ioos:station:wmo:42035:1,2017-09-08T16:00:00Z,29.2320,-94.4130,5.0,7.0,60.0,9.0,'1111122,1111122,1111122' 
NDBC,ioos:station:wmo:42035:1,2017-09-08T17:00:00Z,29.2320,-94.4130,5.0,6.0,50.0,8.0,'1111122,1111122,1111122' 
NDBC,ioos:station:wmo:42035:1,2017-09-08T18:00:00Z,29.2320,-94.4130,5.0,6.0,40.0,8.0,'1111122,1111122,1111122' 
NDBC,ioos:station:wmo:42035:1,2017-09-08T19:00:00Z,29.2320,-94.4130,5.0,7.0,30.0,9.0,'1111122,1111122,1111122' 
NDBC,ioos:station:wmo:42035:1,2017-09-08T20:00:00Z,29.2320,-94.4130,5.0,7.0,50.0,8.0,'1111122,1111122,1111122' 
NDBC,ioos:station:wmo:42035:1,2017-09-08T21:00:00Z,29.2320,-94.4130,5.0,7.0,40.0,8.0,'1111122,1111122,1111122' 
NDBC,ioos:station:wmo:42035:1,2017-09-08T22:00:00Z,29.2320,-94.4130,5.0,6.0,40.0,8.0,'1111122,1111122,1111122' 
NDBC,ioos:station:wmo:42035:1,2017-09-08T23:00:00Z,29.2320,-94.4130,5.0,5.0,40.0,6.0,'1111122,1111122,1111122' 
NDBC,ioos:station:wmo:42035:1,2017-09-09T00:00:00Z,29.2320,-94.4130,5.0,5.0,60.0,7.0,'1111122,1111122,1111122' 
NDBC,ioos:station:wmo:42035:1,2017-09-09T01:00:00Z,29.2320,-94.4130,5.0,6.0,60.0,8.0,'1111122,1111122,1111122' 
NDBC,ioos:station:wmo:42035:1,2017-09-09T02:00:00Z,29.2320,-94.4130,5.0,7.0,60.0,8.0,'1111122,1111122,1111122' 
NDBC,ioos:station:wmo:42035:1,2017-09-09T03:00:00Z,29.2320,-94.4130,5.0,7.0,50.0,9.0,'1111122,1111122,1111122' 
NDBC,ioos:station:wmo:42035:1,2017-09-09T04:00:00Z,29.2320,-94.4130,5.0,7.0,50.0,9.0,'1111122,1111122,1111122' 
NDBC,ioos:station:wmo:42035:1,2017-09-09T05:00:00Z,29.2320,-94.4130,5.0,7.0,40.0,9.0,'1111122,1111122,1111122' 
NDBC,ioos:station:wmo:42035:1,2017-09-09T06:00:00Z,29.2320,-94.4130,5.0,8.0,50.0,9.0,'1111122,1111122,1111122' 
NDBC,ioos:station:wmo:42035:1,2017-09-09T07:00:00Z,29.2320,-94.4130,5.0,7.0,50.0,9.0,'1111122,1111122,1111122' 
NDBC,ioos:station:wmo:42035:1,2017-09-09T08:00:00Z,29.2320,-94.4130,5.0,8.0,50.0,9.0,'1111122,1111122,1111122' 
NDBC,ioos:station:wmo:42035:1,2017-09-09T09:00:00Z,29.2320,-94.4130,5.0,7.0,40.0,9.0,'1111122,1111122,1111122' 
NDBC,ioos:station:wmo:42035:1,2017-09-09T10:00:00Z,29.2320,-94.4130,5.0,7.0,40.0,9.0,'1111122,1111122,1111122' 
NDBC,ioos:station:wmo:42035:1,2017-09-09T11:00:00Z,29.2320,-94.4130,5.0,7.0,40.0,10.0,'1111122,1111122,1111122' 
NDBC,ioos:station:wmo:42035:1,2017-09-09T12:00:00Z,29.2320,-94.4130,5.0,8.0,40.0,9.0,'1111122,1111122,1111122' 
NDBC,ioos:station:wmo:42035:1,2017-09-09T13:00:00Z,29.2320,-94.4130,5.0,7.0,40.0,9.0,'1111122,1111122,1111122' 
NDBC,ioos:station:wmo:42035:1,2017-09-09T14:00:00Z,29.2320,-94.4130,5.0,7.0,40.0,9.0,'1111122,1111122,1111122' 
NDBC,ioos:station:wmo:42035:1,2017-09-09T15:00:00Z,29.2320,-94.4130,5.0,7.0,40.0,9.0,'1111122,1111122,1111122' 
NDBC,ioos:station:wmo:42035:1,2017-09-09T16:00:00Z,29.2320,-94.4130,5.0,7.0,30.0,9.0,'1111122,1111122,1111122' 
NDBC,ioos:station:wmo:42035:1,2017-09-09T17:00:00Z,29.2320,-94.4130,5.0,7.0,40.0,9.0,'1111122,1111122,1111122' 
NDBC,ioos:station:wmo:42035:1,2017-09-09T18:00:00Z,29.2320,-94.4130,5.0,7.0,40.0,8.0,'1111122,1111122,1111122' 
NDBC,ioos:station:wmo:42035:1,2017-09-09T19:00:00Z,29.2320,-94.4130,5.0,7.0,40.0,8.0,'1111122,1111122,1111122' 
NDBC,ioos:station:wmo:42035:1,2017-09-09T20:00:00Z,29.2320,-94.4130,5.0,7.0,30.0,8.0,'1111122,1111122,1111122' 
NDBC,ioos:station:wmo:42035:1,2017-09-09T21:00:00Z,29.2320,-94.4130,5.0,7.0,30.0,8.0,'1111122,1111122,1111122' 
NDBC,ioos:station:wmo:42035:1,2017-09-09T22:00:00Z,29.2320,-94.4130,5.0,6.0,40.0,9.0,'1111122,1111122,1111122' 
NDBC,ioos:station:wmo:42035:1,2017-09-09T23:00:00Z,29.2320,-94.4130,5.0,7.0,40.0,8.0,'1111122,1111122,1111122' 
NDBC,ioos:station:wmo:42035:1,2017-09-10T00:00:00Z,29.2320,-94.4130,5.0,8.0,40.0,9.0,'1111122,1111122,1111122' 
NDBC,ioos:station:wmo:42035:1,2017-09-10T01:00:00Z,29.2320,-94.4130,5.0,8.0,40.0,9.0,'1111122,1111122,1111122' 
NDBC,ioos:station:wmo:42035:1,2017-09-10T02:00:00Z,29.2320,-94.4130,5.0,8.0,40.0,9.0,'1111122,1111122,1111122' 
NDBC,ioos:station:wmo:42035:1,2017-09-10T03:00:00Z,29.2320,-94.4130,5.0,9.0,30.0,10.0,'1111122,1111122,1111122' 
NDBC,ioos:station:wmo:42035:1,2017-09-10T04:00:00Z,29.2320,-94.4130,5.0,9.0,10.0,11.0,'1111122,1111122,1111122' 
NDBC,ioos:station:wmo:42035:1,2017-09-10T05:00:00Z,29.2320,-94.4130,5.0,9.0,30.0,10.0,'1111122,1111122,1111122' 
NDBC,ioos:station:wmo:42035:1,2017-09-10T06:00:00Z,29.2320,-94.4130,5.0,9.0,20.0,10.0,'1111122,1111122,1111122' 
NDBC,ioos:station:wmo:42035:1,2017-09-10T07:00:00Z,29.2320,-94.4130,5.0,9.0,20.0,10.0,'1111122,1111122,1111122' 
NDBC,ioos:station:wmo:42035:1,2017-09-10T08:00:00Z,29.2320,-94.4130,5.0,9.0,20.0,10.0,'1111122,1111122,1111122' 
NDBC,ioos:station:wmo:42035:1,2017-09-10T09:00:00Z,29.2320,-94.4130,5.0,9.0,40.0,11.0,'1111122,1111122,1111122' 
NDBC,ioos:station:wmo:42035:1,2017-09-10T10:00:00Z,29.2320,-94.4130,5.0,9.0,30.0,11.0,'1111122,1111122,1111122' 
NDBC,ioos:station:wmo:42035:1,2017-09-10T11:00:00Z,29.2320,-94.4130,5.0,9.0,40.0,10.0,'1111122,1111122,1111122' 
NDBC,ioos:station:wmo:42035:1,2017-09-10T12:00:00Z,29.2320,-94.4130,5.0,9.0,50.0,11.0,'1111122,1111122,1111122' 
NDBC,ioos:station:wmo:42035:1,2017-09-10T13:00:00Z,29.2320,-94.4130,5.0,8.0,40.0,10.0,'1111122,1111122,1111122' 
NDBC,ioos:station:wmo:42035:1,2017-09-10T14:00:00Z,29.2320,-94.4130,5.0,9.0,30.0,10.0,'1111122,1111122,1111122' 
NDBC,ioos:station:wmo:42035:1,2017-09-10T15:00:00Z,29.2320,-94.4130,5.0,8.0,20.0,9.0,'1111122,1111122,1111122' 
NDBC,ioos:station:wmo:42035:1,2017-09-10T16:00:00Z,29.2320,-94.4130,5.0,8.0,20.0,10.0,'1111122,1111122,1111122' 
NDBC,ioos:station:wmo:42035:1,2017-09-10T17:00:00Z,29.2320,-94.4130,5.0,8.0,20.0,9.0,'1111122,1111122,1111122' 
NDBC,ioos:station:wmo:42035:1,2017-09-10T18:00:00Z,29.2320,-94.4130,5.0,8.0,10.0,9.0,'1111122,1111122,1111122' 
NDBC,ioos:station:wmo:42035:1,2017-09-10T19:00:00Z,29.2320,-94.4130,5.0,8.0,10.0,10.0,'1111122,1111122,1111122' 
NDBC,ioos:station:wmo:42035:1,2017-09-10T20:00:00Z,29.2320,-94.4130,5.0,8.0,10.0,10.0,'1111122,1111122,1111122' 
NDBC,ioos:station:wmo:42035:1,2017-09-10T21:00:00Z,29.2320,-94.4130,5.0,8.0,20.0,10.0,'1111122,1111122,1111122' 
NDBC,ioos:station:wmo:42035:1,2017-09-10T22:00:00Z,29.2320,-94.4130,5.0,7.0,20.0,9.0,'1111122,1111122,1111122' 
NDBC,ioos:station:wmo:42035:1,2017-09-10T23:00:00Z,29.2320,-94.4130,5.0,6.0,20.0,8.0,'1111122,1111122,1111122' 
NDBC,ioos:station:wmo:42035:1,2017-09-11T00:00:00Z,29.2320,-94.4130,5.0,6.0,20.0,7.0,'1111122,1111122,1111122' 
NDBC,ioos:station:wmo:42035:1,2017-09-11T01:00:00Z,29.2320,-94.4130,5.0,8.0,10.0,10.0,'1111122,1111122,1111122' 
NDBC,ioos:station:wmo:42035:1,2017-09-11T02:00:00Z,29.2320,-94.4130,5.0,8.0,10.0,10.0,'1111122,1111122,1111122' 
NDBC,ioos:station:wmo:42035:1,2017-09-11T03:00:00Z,29.2320,-94.4130,5.0,8.0,360.0,10.0,'1111122,1111122,1111122' 
NDBC,ioos:station:wmo:42035:1,2017-09-11T04:00:00Z,29.2320,-94.4130,5.0,9.0,10.0,11.0,'1111122,1111122,1111122' 
NDBC,ioos:station:wmo:42035:1,2017-09-11T05:00:00Z,29.2320,-94.4130,5.0,9.0,10.0,10.0,'1111122,1111122,1111122' 
NDBC,ioos:station:wmo:42035:1,2017-09-11T06:00:00Z,29.2320,-94.4130,5.0,9.0,20.0,11.0,'1111122,1111122,1111122' 
NDBC,ioos:station:wmo:42035:1,2017-09-11T07:00:00Z,29.2320,-94.4130,5.0,9.0,30.0,11.0,'1111122,1111122,1111122' 
NDBC,ioos:station:wmo:42035:1,2017-09-11T08:00:00Z,29.2320,-94.4130,5.0,9.0,30.0,10.0,'1111122,1111122,1111122' 
NDBC,ioos:station:wmo:42035:1,2017-09-11T09:00:00Z,29.2320,-94.4130,5.0,9.0,30.0,11.0,'1111122,1111122,1111122' 
NDBC,ioos:station:wmo:42035:1,2017-09-11T10:00:00Z,29.2320,-94.4130,5.0,9.0,40.0,11.0,'1111122,1111122,1111122' 
NDBC,ioos:station:wmo:42035:1,2017-09-11T11:00:00Z,29.2320,-94.4130,5.0,8.0,30.0,10.0,'1111122,1111122,1111122' 
NDBC,ioos:station:wmo:42035:1,2017-09-11T12:00:00Z,29.2320,-94.4130,5.0,8.0,30.0,10.0,'1111122,1111122,1111122' 
NDBC,ioos:station:wmo:42035:1,2017-09-11T13:00:00Z,29.2320,-94.4130,5.0,8.0,40.0,9.0,'1111122,1111122,1111122' 